Location: Ingoldesthorpe
(52.8667°N, 0.5167°E)
Time: 01:16:55
(UTC+00:00)

Cosmos 1805 - Pass Details

Date: 19 May 2025
Orbit: 448 x 452 km, 82.5° (Epoch: 18 June)

Event Time Altitude Azimuth Distance (km) Brightness Sun altitude
Rises 22:17:29 0° 345° (NNW) 2,470 8.5 -14.2°
Reaches altitude 10° 22:19:36 10° 340° (NNW) 1,592 7.1 -14.3°
Maximum altitude 22:22:58 50° 264° (W) 583 3.5 -14.5°
Enters shadow 22:24:51 23° 198° (SSW) 1,014 4.2 -14.6°
